Comisión Nacional del Agua
Subdirección General Técnica
Estación: Tempoal
Clave: TMPVC
Estado: Veracruz de Ignacio de la Llave
Municipio: Tempoal

Fecha, Precipitación(mm), Temperatura Ambiente(ºC), Temperatura Máxima(ºC), Temperatura Mínima(ºC), Evaporación(mm)
1961/01/01,0.00,-,-,-,-
1961/01/02,8.90,-,22.00,16.00,-
1961/01/03,10.60,-,18.50,17.00,-
1961/01/04,7.80,-,16.00,14.50,-
1961/01/05,0.20,-,16.00,13.00,-
1961/01/06,0.00,-,24.50,15.00,-
1961/01/07,5.20,-,20.00,15.00,-
1961/01/08,0.20,-,24.00,17.00,-
1961/01/09,0.00,-,15.00,14.50,-
1961/01/10,0.00,-,19.00,10.50,-
1961/01/11,2.80,-,23.50,7.50,-
1961/01/12,0.20,-,23.00,12.50,-
1961/01/13,0.00,-,18.50,14.50,-
1961/01/14,0.00,-,25.00,8.50,-
1961/01/15,0.00,-,25.50,10.00,-
1961/01/16,1.00,-,20.50,15.50,-
1961/01/17,0.00,-,21.00,17.00,-
1961/01/18,0.10,-,21.00,16.50,-
1961/01/19,3.50,-,23.00,17.00,-
1961/01/20,8.00,-,20.00,15.50,-
1961/01/21,1.50,-,18.50,11.00,-
1961/01/22,0.00,-,10.50,8.00,-
1961/01/23,0.00,-,24.00,10.50,-
1961/01/24,0.00,-,26.00,12.50,-
1961/01/25,0.50,-,25.00,17.00,-
1961/01/26,0.90,-,25.50,19.00,-
1961/01/27,0.50,-,18.00,12.50,-
1961/01/28,2.40,-,20.00,14.00,-
1961/01/29,1.00,-,14.50,13.00,-
1961/01/30,0.20,-,14.00,11.00,-
1961/01/31,0.00,-,18.00,12.00,-
1961/02/01,0.00,-,24.00,14.50,-
1961/02/02,19.00,-,27.00,16.50,-
1961/02/03,0.10,-,23.00,15.00,-
1961/02/04,0.00,-,25.00,14.50,-
1961/02/05,0.20,-,26.00,15.50,-
1961/02/06,3.00,-,26.50,17.00,-
1961/02/07,0.00,-,-,-,-
1961/02/08,1.00,-,17.00,10.50,-
1961/02/09,0.00,-,17.00,13.00,-
1961/02/10,0.00,-,24.50,15.00,-
1961/02/11,0.00,-,26.50,15.50,-
1961/02/12,0.00,-,27.00,14.50,-
1961/02/13,0.00,-,29.00,11.50,-
1961/02/14,0.00,-,28.50,10.00,-
1961/02/15,0.00,-,27.50,11.00,-
1961/02/16,0.00,-,29.00,16.50,-
1961/02/17,0.10,-,27.00,18.50,-
1961/02/18,0.00,-,31.00,18.00,-
1961/02/19,0.00,-,32.00,20.00,-
1961/02/20,2.00,-,31.00,19.00,-
1961/02/21,0.80,-,30.00,21.00,-
1961/02/22,0.00,-,16.00,13.50,-
1961/02/23,0.00,-,24.00,13.00,-
1961/02/24,0.00,-,28.50,15.00,-
1961/02/25,0.00,-,29.00,16.50,-
1961/02/26,0.00,-,22.50,11.50,-
1961/02/27,0.00,-,27.50,7.00,-
1961/02/28,0.00,-,31.50,12.00,-
1961/03/01,6.60,-,28.00,17.00,-
1961/03/02,0.00,-,20.50,17.50,-
1961/03/03,0.00,-,28.00,15.00,-
1961/03/04,0.00,-,28.00,16.50,-
1961/03/05,0.10,-,30.50,19.50,-
1961/03/06,0.00,-,30.50,21.00,-
1961/03/07,0.00,-,33.00,21.50,-
1961/03/08,0.00,-,32.00,22.00,-
1961/03/09,0.00,-,28.00,23.00,-
1961/03/10,0.00,-,26.00,14.50,-
1961/03/11,0.00,-,27.50,11.00,-
1961/03/12,0.00,-,29.00,14.50,-
1961/03/13,0.00,-,35.50,17.00,-
1961/03/14,0.00,-,34.00,21.00,-
1961/03/15,0.00,-,29.00,20.50,-
1961/03/16,0.00,-,31.00,19.00,-
1961/03/17,0.00,-,38.00,20.50,-
1961/03/18,0.00,-,35.00,16.00,-
1961/03/19,0.00,-,33.00,18.00,-
1961/03/20,4.70,-,35.00,21.00,-
1961/03/21,0.00,-,21.00,19.50,-
1961/03/22,0.00,-,28.00,17.50,-
1961/03/23,10.80,-,31.00,15.00,-
1961/03/24,0.00,-,29.50,21.00,-
1961/03/25,0.00,-,28.50,19.50,-
1961/03/26,0.00,-,30.00,20.50,-
1961/03/27,0.00,-,33.00,22.00,-
1961/03/28,0.00,-,36.00,23.50,-
1961/03/29,0.00,-,36.00,21.50,-
1961/03/30,0.00,-,34.50,23.00,-
1961/03/31,0.00,-,37.00,23.50,-
1961/04/01,0.20,-,26.50,21.50,-
1961/04/02,0.50,-,25.00,18.50,-
1961/04/03,0.00,-,19.50,16.50,-
1961/04/04,0.00,-,30.00,19.00,-
1961/04/05,0.00,-,29.00,20.00,-
1961/04/06,0.00,-,31.50,20.50,-
1961/04/07,0.00,-,31.50,22.50,-
1961/04/08,0.00,-,27.50,20.00,-
1961/04/09,0.00,-,33.00,21.00,-
1961/04/10,0.00,-,31.00,21.50,-
1961/04/11,0.00,-,30.50,20.00,-
1961/04/12,0.00,-,37.00,20.00,-
1961/04/13,0.00,-,32.00,23.50,-
1961/04/14,0.00,-,33.00,15.50,-
1961/04/15,0.00,-,41.00,20.00,-
1961/04/16,0.00,-,38.50,20.50,-
1961/04/17,0.00,-,28.00,18.50,-
1961/04/18,0.00,-,30.00,19.00,-
1961/04/19,0.00,-,33.00,19.00,-
1961/04/20,0.00,-,34.50,21.00,-
1961/04/21,0.00,-,34.00,22.50,-
1961/04/22,0.00,-,34.50,23.00,-
1961/04/23,0.00,-,35.50,24.00,-
1961/04/24,0.00,-,36.00,20.00,-
1961/04/25,0.00,-,38.00,23.50,-
1961/04/26,0.00,-,39.50,25.00,-
1961/04/27,0.00,-,40.00,26.00,-
1961/04/28,0.00,-,38.50,26.00,-
1961/04/29,0.00,-,36.50,25.50,-
1961/04/30,0.70,-,36.50,25.00,-
1961/05/01,0.00,-,37.00,24.00,-
1961/05/02,0.00,-,40.00,25.50,-
1961/05/03,0.00,-,39.00,24.50,-
1961/05/04,0.00,-,39.00,25.00,-
1961/05/05,0.00,-,38.50,27.50,-
1961/05/06,0.00,-,41.00,26.00,-
1961/05/07,0.00,-,40.50,26.50,-
1961/05/08,1.00,-,39.50,28.00,-
1961/05/09,31.00,-,39.00,26.50,-
1961/05/10,0.00,-,30.50,26.00,-
1961/05/11,0.00,-,33.00,23.00,-
1961/05/12,0.00,-,35.00,21.00,-
1961/05/13,0.00,-,37.00,22.00,-
1961/05/14,0.00,-,37.00,23.00,-
1961/05/15,0.00,-,33.50,26.00,-
1961/05/16,0.00,-,36.50,25.50,-
1961/05/17,0.00,-,35.50,26.00,-
1961/05/18,0.00,-,37.00,25.00,-
1961/05/19,0.00,-,36.50,26.50,-
1961/05/20,0.00,-,35.00,25.50,-
1961/05/21,0.00,-,37.50,23.50,-
1961/05/22,0.00,-,39.00,24.50,-
1961/05/23,2.00,-,39.00,26.00,-
1961/05/24,25.50,-,36.00,25.00,-
1961/05/25,0.00,-,30.50,24.00,-
1961/05/26,9.00,-,37.50,26.00,-
1961/05/27,0.50,-,37.50,28.50,-
1961/05/28,0.00,-,32.50,26.50,-
1961/05/29,0.00,-,35.50,26.00,-
1961/05/30,0.00,-,36.50,26.50,-
1961/05/31,0.00,-,35.50,25.00,-
1961/06/01,0.00,-,35.00,25.50,-
1961/06/02,0.00,-,36.00,26.50,-
1961/06/03,0.00,-,38.00,27.00,-
1961/06/04,0.00,-,38.50,27.00,-
1961/06/05,0.00,-,38.00,26.00,-
1961/06/06,0.00,-,37.50,28.00,-
1961/06/07,0.00,-,38.00,27.00,-
1961/06/08,0.00,-,37.50,28.50,-
1961/06/09,0.00,-,39.00,27.00,-
1961/06/10,98.30,-,38.50,29.00,-
1961/06/11,4.50,-,36.00,26.50,-
1961/06/12,3.50,-,29.00,25.00,-
1961/06/13,75.80,-,30.00,24.00,-
1961/06/14,72.50,-,28.50,25.00,-
1961/06/15,34.70,-,29.00,24.00,-
1961/06/16,60.00,-,26.50,23.00,-
1961/06/17,0.00,-,32.50,26.00,-
1961/06/18,10.70,-,33.50,26.00,-
1961/06/19,70.00,-,34.50,26.00,-
1961/06/20,0.00,-,32.00,23.00,-
1961/06/21,0.00,-,34.50,23.00,-
1961/06/22,0.00,-,33.50,24.00,-
1961/06/23,0.00,-,34.50,25.50,-
1961/06/24,0.00,-,33.00,24.50,-
1961/06/25,0.00,-,34.00,24.00,-
1961/06/26,0.00,-,34.00,25.00,-
1961/06/27,0.00,-,33.00,24.50,-
1961/06/28,7.00,-,35.00,26.00,-
1961/06/29,4.10,-,34.00,26.50,-
1961/06/30,20.50,-,30.00,22.50,-
1961/07/01,9.20,-,29.00,24.00,-
1961/07/02,34.30,-,25.50,23.50,-
1961/07/03,25.00,-,30.00,23.00,-
1961/07/04,0.00,-,30.50,23.50,-
1961/07/05,1.60,-,31.00,23.00,-
1961/07/06,3.60,-,30.00,23.50,-
1961/07/07,6.00,-,31.00,24.50,-
1961/07/08,20.50,-,31.00,24.00,-
1961/07/09,0.00,-,31.50,24.00,-
1961/07/10,0.00,-,33.50,23.50,-
1961/07/11,0.00,-,33.50,26.00,-
1961/07/12,9.70,-,33.50,26.50,-
1961/07/13,3.00,-,32.50,24.00,-
1961/07/14,25.20,-,30.00,24.00,-
1961/07/15,0.00,-,31.50,25.50,-
1961/07/16,0.00,-,32.00,23.00,-
1961/07/17,0.00,-,34.50,25.00,-
1961/07/18,0.00,-,34.00,25.00,-
1961/07/19,0.00,-,34.00,24.00,-
1961/07/20,0.00,-,34.00,24.00,-
1961/07/21,0.00,-,34.00,24.50,-
1961/07/22,0.00,-,35.00,25.50,-
1961/07/23,2.60,-,31.00,25.50,-
1961/07/24,0.00,-,34.50,25.00,-
1961/07/25,39.50,-,33.00,23.50,-
1961/07/26,0.00,-,33.50,24.50,-
1961/07/27,3.80,-,31.00,22.50,-
1961/07/28,0.40,-,29.00,24.00,-
1961/07/29,19.40,-,29.00,23.00,-
1961/07/30,43.00,-,32.00,24.00,-
1961/07/31,2.80,-,31.00,24.00,-
1961/08/01,2.80,-,28.50,22.50,-
1961/08/02,-,-,-,-,-
1961/08/03,-,-,-,-,-
1961/08/04,-,-,-,-,-
1961/08/05,-,-,-,-,-
1961/08/06,-,-,-,-,-
1961/08/07,-,-,-,-,-
1961/08/08,-,-,-,-,-
1961/08/09,-,-,-,-,-
1961/08/10,-,-,-,-,-
1961/08/11,-,-,-,-,-
1961/08/12,-,-,-,-,-
1961/08/13,-,-,-,-,-
1961/08/14,-,-,-,-,-
1961/08/15,-,-,-,-,-
1961/08/16,-,-,-,-,-
1961/08/17,-,-,-,-,-
1961/08/18,-,-,-,-,-
1961/08/19,-,-,-,-,-
1961/08/20,-,-,-,-,-
1961/08/21,-,-,-,-,-
1961/08/22,-,-,-,-,-
1961/08/23,-,-,-,-,-
1961/08/24,-,-,-,-,-
1961/08/25,-,-,-,-,-
1961/08/26,-,-,-,-,-
1961/08/27,-,-,-,-,-
1961/08/28,-,-,-,-,-
1961/08/29,-,-,-,-,-
1961/08/30,-,-,-,-,-
1961/08/31,-,-,-,-,-
1961/09/01,0.00,-,-,-,-
1961/09/02,1.60,-,35.50,23.50,-
1961/09/03,0.00,-,35.00,25.00,-
1961/09/04,4.40,-,35.00,25.50,-
1961/09/05,0.00,-,33.50,24.50,-
1961/09/06,4.00,-,34.50,22.50,-
1961/09/07,0.00,-,33.50,23.50,-
1961/09/08,1.30,-,34.50,23.00,-
1961/09/09,0.00,-,34.50,24.00,-
1961/09/10,0.00,-,34.00,24.50,-
1961/09/11,0.00,-,32.50,24.50,-
1961/09/12,0.00,-,40.00,25.00,-
1961/09/13,0.50,-,39.50,27.00,-
1961/09/14,118.50,-,37.50,27.00,-
1961/09/15,17.00,-,27.00,23.50,-
1961/09/16,16.70,-,26.00,21.00,-
1961/09/17,18.60,-,28.50,20.00,-
1961/09/18,2.00,-,28.50,21.50,-
1961/09/19,0.00,-,28.50,22.00,-
1961/09/20,0.00,-,31.50,20.00,-
1961/09/21,0.00,-,33.00,21.50,-
1961/09/22,0.00,-,34.00,22.50,-
1961/09/23,15.40,-,34.00,25.00,-
1961/09/24,0.30,-,32.00,23.50,-
1961/09/25,71.50,-,32.50,24.00,-
1961/09/26,1.00,-,32.00,24.00,-
1961/09/27,0.00,-,30.50,22.50,-
1961/09/28,0.30,-,32.00,23.00,-
1961/09/29,0.00,-,28.00,22.00,-
1961/09/30,0.00,-,32.50,23.00,-
1961/10/01,0.00,-,33.00,21.50,-
1961/10/02,7.20,-,35.50,23.00,-
1961/10/03,12.50,-,32.50,23.00,-
1961/10/04,0.00,-,21.50,18.50,-
1961/10/05,0.00,-,26.50,17.50,-
1961/10/06,0.00,-,28.50,16.00,-
1961/10/07,0.00,-,30.00,20.00,-
1961/10/08,1.10,-,31.50,21.00,-
1961/10/09,0.00,-,33.00,23.50,-
1961/10/10,0.00,-,32.50,24.00,-
1961/10/11,0.00,-,33.50,24.00,-
1961/10/12,2.00,-,32.00,23.00,-
1961/10/13,23.80,-,32.00,23.00,-
1961/10/14,10.00,-,30.00,22.00,-
1961/10/15,0.00,-,22.50,21.50,-
1961/10/16,0.00,-,26.00,20.50,-
1961/10/17,0.00,-,26.00,15.00,-
1961/10/18,0.00,-,28.00,15.00,-
1961/10/19,0.00,-,29.00,15.00,-
1961/10/20,0.00,-,30.00,17.00,-
1961/10/21,0.00,-,30.00,18.50,-
1961/10/22,0.00,-,30.00,19.50,-
1961/10/23,0.00,-,30.00,18.00,-
1961/10/24,0.00,-,30.50,19.00,-
1961/10/25,39.00,-,31.50,19.50,-
1961/10/26,13.10,-,31.50,20.50,-
1961/10/27,0.00,-,24.50,21.50,-
1961/10/28,0.00,-,29.00,20.00,-
1961/10/29,0.00,-,30.00,18.00,-
1961/10/30,0.00,-,31.50,22.00,-
1961/10/31,0.00,-,32.00,22.50,-
1961/11/01,0.00,-,30.50,21.50,-
1961/11/02,0.00,-,30.50,21.00,-
1961/11/03,1.00,-,31.00,21.00,-
1961/11/04,0.80,-,23.50,23.00,-
1961/11/05,14.50,-,24.50,19.00,-
1961/11/06,34.80,-,26.00,20.00,-
1961/11/07,17.20,-,-,-,-
1961/11/08,0.00,-,15.50,11.00,-
1961/11/09,0.00,-,19.00,14.50,-
1961/11/10,0.00,-,24.50,16.50,-
1961/11/11,0.00,-,27.50,17.00,-
1961/11/12,0.00,-,29.00,18.00,-
1961/11/13,0.20,-,27.50,20.00,-
1961/11/14,1.00,-,31.50,22.00,-
1961/11/15,3.90,-,22.00,19.50,-
1961/11/16,18.00,-,22.00,19.50,-
1961/11/17,0.00,-,17.50,16.50,-
1961/11/18,0.00,-,24.50,17.00,-
1961/11/19,0.00,-,28.50,19.00,-
1961/11/20,0.10,-,29.50,20.00,-
1961/11/21,0.00,-,26.00,21.00,-
1961/11/22,0.00,-,30.00,22.00,-
1961/11/23,0.00,-,32.50,20.00,-
1961/11/24,0.00,-,27.50,17.00,-
1961/11/25,0.00,-,26.50,14.50,-
1961/11/26,0.00,-,28.50,17.00,-
1961/11/27,0.00,-,28.00,18.00,-
1961/11/28,0.00,-,28.00,12.50,-
1961/11/29,0.00,-,27.50,13.00,-
1961/11/30,0.00,-,26.00,16.00,-
1961/12/01,0.00,-,26.50,16.00,-
1961/12/02,0.00,-,28.50,15.50,-
1961/12/03,0.00,-,28.50,17.50,-
1961/12/04,0.00,-,28.50,20.50,-
1961/12/05,0.00,-,28.00,18.50,-
1961/12/06,0.00,-,30.00,18.00,-
1961/12/07,0.00,-,29.00,20.00,-
1961/12/08,0.00,-,29.00,19.50,-
1961/12/09,0.00,-,29.50,20.50,-
1961/12/10,0.00,-,32.00,17.50,-
1961/12/11,0.00,-,33.00,16.50,-
1961/12/12,0.10,-,31.50,21.00,-
1961/12/13,0.00,-,29.00,22.00,-
1961/12/14,0.70,-,19.00,15.00,-
1961/12/15,0.20,-,25.50,17.50,-
1961/12/16,0.00,-,25.00,20.00,-
1961/12/17,0.00,-,26.00,20.00,-
1961/12/18,0.00,-,30.00,21.00,-
1961/12/19,1.50,-,29.50,15.50,-
1961/12/20,0.00,-,29.50,19.50,-
1961/12/21,0.00,-,20.00,18.00,-
1961/12/22,1.40,-,28.50,18.50,-
1961/12/23,0.20,-,30.00,15.00,-
1961/12/24,0.00,-,17.00,16.50,-
1961/12/25,0.00,-,17.50,14.50,-
1961/12/26,0.00,-,20.00,14.50,-
1961/12/27,0.00,-,27.00,13.00,-
1961/12/28,0.00,-,29.00,13.00,-
1961/12/29,0.00,-,24.00,9.00,-
1961/12/30,0.00,-,21.00,14.50,-
1961/12/31,0.00,-,29.00,10.00,-
1962/01/01,0.00,-,29.00,11.50,-
1962/01/02,0.00,-,23.00,14.50,-
1962/01/03,0.00,-,23.00,6.50,-
1962/01/04,0.10,-,27.00,13.00,-
1962/01/05,0.00,-,29.50,11.00,-
1962/01/06,0.00,-,27.00,14.50,-
1962/01/07,0.00,-,21.00,12.00,-
1962/01/08,0.00,-,28.00,7.00,-
1962/01/09,0.90,-,27.50,11.00,-
1962/01/10,0.00,-,31.00,10.00,-
1962/01/11,0.00,-,-,-,-
1962/01/12,0.00,-,6.00,1.00,-
1962/01/13,0.00,-,16.50,2.50,-
1962/01/14,0.00,-,26.00,6.00,-
1962/01/15,0.00,-,31.00,7.00,-
1962/01/16,0.00,-,25.00,13.00,-
1962/01/17,0.00,-,26.00,10.00,-
1962/01/18,0.00,-,28.50,16.00,-
1962/01/19,0.00,-,29.00,16.00,-
1962/01/20,0.00,-,26.00,18.00,-
1962/01/21,0.00,-,28.50,18.50,-
1962/01/22,0.00,-,31.00,20.00,-
1962/01/23,0.00,-,32.00,20.00,-
1962/01/24,0.20,-,31.50,20.00,-
1962/01/25,0.10,-,26.50,16.50,-
1962/01/26,0.00,-,30.00,20.00,-
1962/01/27,0.00,-,35.00,16.50,-
1962/01/28,0.00,-,27.00,17.50,-
1962/01/29,0.00,-,27.00,18.00,-
1962/01/30,0.00,-,26.00,5.00,-
1962/01/31,0.00,-,27.00,7.00,-
1962/02/01,0.00,-,24.00,14.00,-
1962/02/02,0.00,-,25.00,16.50,-
1962/02/03,0.00,-,31.50,16.50,-
1962/02/04,0.00,-,31.50,18.00,-
1962/02/05,0.00,-,29.00,17.00,-
1962/02/06,3.80,-,32.50,19.00,-
1962/02/07,0.00,-,21.50,19.00,-
1962/02/08,0.10,-,29.00,16.50,-
1962/02/09,0.20,-,35.00,14.50,-
1962/02/10,0.00,-,33.00,19.00,-
1962/02/11,0.00,-,34.50,18.00,-
1962/02/12,0.00,-,31.00,19.00,-
1962/02/13,0.00,-,31.00,17.00,-
1962/02/14,0.00,-,31.00,15.00,-
1962/02/15,0.00,-,32.00,17.00,-
1962/02/16,0.00,-,33.50,20.00,-
1962/02/17,0.00,-,34.50,16.50,-
1962/02/18,0.00,-,32.00,18.50,-
1962/02/19,0.00,-,33.00,19.50,-
1962/02/20,0.00,-,34.00,18.00,-
1962/02/21,0.00,-,33.00,21.00,-
1962/02/22,0.10,-,38.00,17.00,-
1962/02/23,0.00,-,38.00,22.00,-
1962/02/24,0.00,-,40.00,21.50,-
1962/02/25,0.10,-,33.00,18.50,-
1962/02/26,0.10,-,33.50,20.00,-
1962/02/27,0.00,-,34.00,22.00,-
1962/02/28,8.20,-,35.50,22.50,-
1962/03/01,0.00,-,24.00,23.00,-
1962/03/02,0.00,-,19.50,11.00,-
1962/03/03,0.00,-,25.00,14.50,-
1962/03/04,0.00,-,31.00,14.00,-
1962/03/05,0.00,-,30.50,16.00,-
1962/03/06,0.00,-,24.50,18.00,-
1962/03/07,0.00,-,22.00,16.50,-
1962/03/08,0.00,-,30.00,14.50,-
1962/03/09,0.00,-,36.00,16.00,-
1962/03/10,0.00,-,35.00,20.00,-
1962/03/11,0.00,-,40.00,21.00,-
1962/03/12,0.50,-,35.50,19.00,-
1962/03/13,6.60,-,31.00,18.50,-
1962/03/14,0.00,-,29.00,20.00,-
1962/03/15,1.80,-,33.00,21.50,-
1962/03/16,0.20,-,15.00,12.50,-
1962/03/17,0.20,-,19.50,12.50,-
1962/03/18,0.00,-,20.50,14.00,-
1962/03/19,0.00,-,26.00,17.50,-
1962/03/20,0.00,-,31.50,19.00,-
1962/03/21,0.00,-,38.50,20.50,-
1962/03/22,0.00,-,36.00,20.50,-
1962/03/23,0.00,-,41.00,21.50,-
1962/03/24,0.00,-,32.00,23.00,-
1962/03/25,0.00,-,37.00,16.00,-
1962/03/26,0.00,-,33.00,16.50,-
1962/03/27,0.00,-,32.00,13.00,-
1962/03/28,0.00,-,31.50,14.00,-
1962/03/29,0.00,-,32.00,14.00,-
1962/03/30,0.00,-,36.00,19.50,-
1962/03/31,0.00,-,34.00,22.00,-
1962/04/01,0.00,-,33.50,23.50,-
1962/04/02,0.10,-,26.00,16.00,-
1962/04/03,1.40,-,26.00,18.00,-
1962/04/04,0.00,-,25.00,18.00,-
1962/04/05,0.00,-,29.00,20.00,-
1962/04/06,2.80,-,35.50,20.00,-
1962/04/07,0.00,-,33.00,22.00,-
1962/04/08,0.00,-,26.00,17.50,-
1962/04/09,0.00,-,33.00,15.00,-
1962/04/10,0.00,-,37.50,20.00,-
1962/04/11,1.80,-,40.00,24.00,-
1962/04/12,21.00,-,36.00,24.00,-
1962/04/13,2.70,-,-,-,-
1962/04/14,2.40,-,27.00,20.50,-
1962/04/15,20.30,-,23.00,17.50,-
1962/04/16,13.40,-,30.00,18.50,-
1962/04/17,0.00,-,23.00,20.50,-
1962/04/18,0.00,-,30.00,20.00,-
1962/04/19,0.00,-,32.00,20.00,-
1962/04/20,0.00,-,31.00,19.00,-
1962/04/21,0.00,-,31.00,17.00,-
1962/04/22,1.50,-,31.00,19.00,-
1962/04/23,0.00,-,32.50,22.50,-
1962/04/24,0.00,-,32.00,21.50,-
1962/04/25,0.00,-,33.00,21.00,-
1962/04/26,0.00,-,33.00,20.00,-
1962/04/27,0.00,-,34.00,23.50,-
1962/04/28,0.00,-,39.50,24.00,-
1962/04/29,0.00,-,39.00,22.00,-
1962/04/30,0.00,-,40.00,25.00,-
1962/05/01,25.50,-,40.00,24.00,-
1962/05/02,39.50,-,33.00,24.50,-
1962/05/03,0.00,-,30.00,20.00,-
1962/05/04,0.00,-,28.00,20.50,-
1962/05/05,0.00,-,31.00,23.00,-
1962/05/06,0.00,-,32.50,23.00,-
1962/05/07,0.00,-,32.00,22.00,-
1962/05/08,0.00,-,32.00,21.00,-
1962/05/09,0.00,-,32.00,22.00,-
1962/05/10,0.00,-,32.50,21.00,-
1962/05/11,0.00,-,33.00,22.00,-
1962/05/12,0.00,-,33.50,22.00,-
1962/05/13,0.00,-,32.50,22.00,-
1962/05/14,0.00,-,34.00,22.50,-
1962/05/15,0.00,-,34.00,24.00,-
1962/05/16,0.00,-,34.50,24.50,-
1962/05/17,0.00,-,34.00,25.00,-
1962/05/18,0.00,-,31.50,22.00,-
1962/05/19,0.00,-,30.00,22.50,-
1962/05/20,0.00,-,33.00,21.50,-
1962/05/21,0.00,-,34.50,21.00,-
1962/05/22,0.00,-,35.00,23.50,-
1962/05/23,0.00,-,36.00,24.00,-
1962/05/24,0.00,-,36.50,24.00,-
1962/05/25,0.00,-,36.50,27.00,-
1962/05/26,0.00,-,37.00,27.00,-
1962/05/27,0.00,-,38.00,26.50,-
1962/05/28,0.00,-,38.00,26.00,-
1962/05/29,0.00,-,38.50,26.50,-
1962/05/30,0.00,-,37.50,28.00,-
1962/05/31,0.00,-,37.50,27.00,-
1962/06/01,0.00,-,38.00,28.00,-
1962/06/02,14.20,-,40.00,27.00,-
1962/06/03,0.00,-,37.00,28.00,-
1962/06/04,0.00,-,34.50,24.00,-
1962/06/05,0.00,-,37.00,26.50,-
1962/06/06,0.00,-,37.00,26.50,-
1962/06/07,0.00,-,37.50,27.00,-
1962/06/08,0.00,-,38.50,26.50,-
1962/06/09,0.00,-,38.00,27.50,-
1962/06/10,0.00,-,37.50,26.50,-
1962/06/11,0.00,-,37.50,26.50,-
1962/06/12,0.00,-,37.00,24.50,-
1962/06/13,0.00,-,37.00,25.00,-
1962/06/14,0.00,-,37.00,26.00,-
1962/06/15,0.00,-,37.50,26.00,-
1962/06/16,0.00,-,37.50,25.50,-
1962/06/17,0.00,-,37.50,25.50,-
1962/06/18,5.00,-,36.50,26.00,-
1962/06/19,0.00,-,32.00,27.00,-
1962/06/20,0.00,-,38.00,26.00,-
1962/06/21,0.00,-,38.00,26.00,-
1962/06/22,6.20,-,38.00,27.00,-
1962/06/23,45.20,-,36.00,26.50,-
1962/06/24,7.50,-,31.50,25.00,-
1962/06/25,19.80,-,27.00,23.50,-
1962/06/26,4.30,-,27.00,23.50,-
1962/06/27,0.40,-,28.00,22.50,-
1962/06/28,3.90,-,32.00,23.00,-
1962/06/29,1.30,-,32.50,24.00,-
1962/06/30,0.00,-,32.00,24.00,-
1962/07/01,2.10,-,32.50,24.00,-
1962/07/02,14.20,-,33.00,26.00,-
1962/07/03,8.90,-,29.00,23.00,-
1962/07/04,0.30,-,28.00,23.00,-
1962/07/05,0.00,-,31.00,23.50,-
1962/07/06,0.30,-,33.50,23.00,-
1962/07/07,31.20,-,32.50,24.00,-
1962/07/08,1.30,-,30.50,25.00,-
1962/07/09,0.00,-,30.00,23.50,-
1962/07/10,0.00,-,34.00,23.00,-
1962/07/11,0.00,-,33.00,24.50,-
1962/07/12,0.00,-,33.50,24.50,-
1962/07/13,0.00,-,33.50,24.50,-
1962/07/14,0.00,-,34.00,23.00,-
1962/07/15,0.00,-,35.00,25.00,-
1962/07/16,2.40,-,34.50,26.00,-
1962/07/17,41.90,-,34.50,25.00,-
1962/07/18,0.00,-,31.50,24.00,-
1962/07/19,0.10,-,32.00,23.00,-
1962/07/20,0.00,-,33.50,25.00,-
1962/07/21,0.00,-,34.00,23.00,-
1962/07/22,0.00,-,34.50,24.00,-
1962/07/23,0.00,-,34.00,24.00,-
1962/07/24,0.00,-,34.00,24.00,-
1962/07/25,0.00,-,35.00,24.00,-
1962/07/26,2.30,-,35.00,24.00,-
1962/07/27,0.00,-,33.00,24.50,-
1962/07/28,0.00,-,34.00,23.00,-
1962/07/29,0.10,-,34.00,24.00,-
1962/07/30,0.00,-,34.00,24.00,-
1962/07/31,0.00,-,34.00,24.00,-
1962/08/01,0.00,-,35.50,24.00,-
1962/08/02,0.00,-,36.00,23.50,-
1962/08/03,0.00,-,35.00,24.50,-
1962/08/04,0.00,-,35.00,25.00,-
1962/08/05,0.00,-,36.00,25.50,-
1962/08/06,0.00,-,36.00,26.00,-
1962/08/07,0.00,-,36.50,26.00,-
1962/08/08,0.00,-,36.50,26.00,-
1962/08/09,0.00,-,37.00,26.00,-
1962/08/10,0.00,-,36.50,25.00,-
1962/08/11,0.00,-,37.00,24.50,-
1962/08/12,0.00,-,37.00,24.50,-
1962/08/13,0.00,-,36.00,24.00,-
1962/08/14,0.00,-,37.50,24.00,-
1962/08/15,0.00,-,37.00,24.50,-
1962/08/16,0.00,-,38.00,24.00,-
1962/08/17,2.80,-,36.50,25.50,-
1962/08/18,0.00,-,36.00,24.50,-
1962/08/19,0.00,-,36.00,25.00,-
1962/08/20,7.30,-,36.50,24.00,-
1962/08/21,0.00,-,36.00,25.00,-
1962/08/22,0.00,-,34.00,24.00,-
1962/08/23,0.00,-,36.50,25.00,-
1962/08/24,0.00,-,37.00,26.50,-
1962/08/25,0.00,-,38.00,26.00,-
1962/08/26,16.90,-,39.00,24.50,-
1962/08/27,0.00,-,39.00,26.00,-
1962/08/28,0.00,-,36.00,24.50,-
1962/08/29,0.00,-,38.00,26.00,-
1962/08/30,24.50,-,38.00,25.50,-
1962/08/31,15.70,-,34.50,25.00,-
1962/09/01,10.10,-,33.00,25.00,-
1962/09/02,15.20,-,32.50,24.00,-
1962/09/03,12.50,-,30.50,25.00,-
1962/09/04,16.70,-,31.50,24.00,-
1962/09/05,23.80,-,31.50,24.00,-
1962/09/06,0.10,-,31.50,25.00,-
1962/09/07,0.00,-,32.50,24.50,-
1962/09/08,0.00,-,34.00,23.50,-
1962/09/09,0.00,-,36.00,26.00,-
1962/09/10,2.80,-,35.50,27.50,-
1962/09/11,18.00,-,35.00,26.00,-
1962/09/12,0.00,-,30.00,23.50,-
1962/09/13,0.00,-,34.00,23.50,-
1962/09/14,0.00,-,34.00,24.00,-
1962/09/15,0.00,-,34.00,23.50,-
1962/09/16,0.10,-,33.50,24.50,-
1962/09/17,1.00,-,34.50,24.50,-
1962/09/18,9.80,-,35.00,24.50,-
1962/09/19,10.50,-,32.00,25.00,-
1962/09/20,39.90,-,31.50,24.00,-
1962/09/21,36.50,-,31.50,25.00,-
1962/09/22,54.80,-,29.00,24.00,-
1962/09/23,10.50,-,29.00,22.50,-
1962/09/24,6.70,-,25.00,21.00,-
1962/09/25,0.00,-,31.50,23.50,-
1962/09/26,0.00,-,33.00,25.00,-
1962/09/27,0.00,-,33.00,23.50,-
1962/09/28,0.00,-,33.50,23.50,-
1962/09/29,0.00,-,30.00,24.00,-
1962/09/30,0.00,-,32.50,23.50,-
1962/10/01,0.10,-,35.00,25.00,-
1962/10/02,40.50,-,32.50,24.50,-
1962/10/03,0.00,-,31.50,24.00,-
1962/10/04,0.20,-,30.50,23.50,-
1962/10/05,0.00,-,33.00,24.00,-
1962/10/06,0.00,-,32.00,23.00,-
1962/10/07,0.00,-,33.00,24.00,-
1962/10/08,0.00,-,34.00,25.00,-
1962/10/09,0.10,-,34.50,25.00,-
1962/10/10,0.00,-,33.50,24.50,-
1962/10/11,0.00,-,36.00,25.50,-
1962/10/12,0.00,-,34.50,23.00,-
1962/10/13,0.00,-,33.50,23.50,-
1962/10/14,0.00,-,33.50,22.50,-
1962/10/15,0.00,-,34.00,23.00,-
1962/10/16,0.00,-,35.00,23.50,-
1962/10/17,24.80,-,33.50,23.50,-
1962/10/18,0.10,-,31.50,24.00,-
1962/10/19,0.00,-,32.50,23.00,-
1962/10/20,0.00,-,33.00,22.00,-
1962/10/21,0.00,-,34.00,22.00,-
1962/10/22,0.00,-,31.00,22.50,-
1962/10/23,0.00,-,32.50,22.00,-
1962/10/24,0.00,-,32.00,19.50,-
1962/10/25,6.70,-,32.00,18.50,-
1962/10/26,0.00,-,27.50,20.00,-
1962/10/27,1.70,-,26.50,20.50,-
1962/10/28,0.10,-,31.50,20.50,-
1962/10/29,18.20,-,31.50,21.00,-
1962/10/30,0.00,-,31.50,21.00,-
1962/10/31,0.00,-,28.00,21.50,-
1962/11/01,0.00,-,30.00,16.50,-
1962/11/02,0.00,-,29.50,14.00,-
1962/11/03,0.00,-,30.00,16.50,-
1962/11/04,0.00,-,30.00,20.00,-
1962/11/05,0.00,-,30.00,19.50,-
1962/11/06,0.00,-,30.00,19.50,-
1962/11/07,1.00,-,31.50,20.50,-
1962/11/08,1.50,-,32.00,21.50,-
1962/11/09,0.10,-,28.00,20.50,-
1962/11/10,0.00,-,28.50,18.00,-
1962/11/11,0.00,-,31.00,13.50,-
1962/11/12,0.10,-,30.50,14.50,-
1962/11/13,0.00,-,29.50,14.00,-
1962/11/14,0.00,-,28.00,11.00,-
1962/11/15,0.00,-,28.00,9.50,-
1962/11/16,0.00,-,30.00,12.50,-
1962/11/17,0.10,-,31.50,13.50,-
1962/11/18,0.00,-,32.00,15.50,-
1962/11/19,0.00,-,26.00,19.50,-
1962/11/20,0.50,-,30.00,19.00,-
1962/11/21,0.00,-,22.50,20.00,-
1962/11/22,12.20,-,29.00,16.00,-
1962/11/23,2.50,-,26.50,21.00,-
1962/11/24,0.80,-,29.50,21.50,-
1962/11/25,2.30,-,30.00,22.00,-
1962/11/26,0.00,-,29.00,23.00,-
1962/11/27,0.00,-,30.50,21.00,-
1962/11/28,0.00,-,31.50,19.00,-
1962/11/29,0.00,-,29.00,20.50,-
1962/11/30,2.90,-,-,-,-
1962/12/01,0.10,-,21.00,17.00,-
1962/12/02,0.00,-,22.00,18.00,-
1962/12/03,0.00,-,26.50,18.50,-
1962/12/04,0.00,-,27.50,19.50,-
1962/12/05,0.00,-,29.00,21.00,-
1962/12/06,0.00,-,24.00,21.50,-
1962/12/07,0.00,-,20.50,14.50,-
1962/12/08,0.00,-,29.50,14.00,-
1962/12/09,1.70,-,24.50,17.00,-
1962/12/10,0.10,-,20.50,14.00,-
1962/12/11,0.00,-,20.50,15.50,-
1962/12/12,8.00,-,25.50,17.50,-
1962/12/13,1.00,-,-,-,-
1962/12/14,0.10,-,14.50,9.50,-
1962/12/15,0.00,-,24.00,14.00,-
1962/12/16,0.10,-,28.00,15.50,-
1962/12/17,0.10,-,28.00,15.00,-
1962/12/18,0.10,-,29.50,16.50,-
1962/12/19,0.00,-,29.50,19.00,-
1962/12/20,0.00,-,29.00,17.50,-
1962/12/21,0.70,-,30.00,19.00,-
1962/12/22,1.10,-,30.00,20.00,-
1962/12/23,3.30,-,18.00,15.50,-
1962/12/24,0.30,-,20.00,17.00,-
1962/12/25,0.00,-,19.50,16.00,-
1962/12/26,8.00,-,25.00,16.50,-
1962/12/27,0.20,-,-,-,-
1962/12/28,0.00,-,22.00,13.00,-
1962/12/29,1.60,-,27.00,16.50,-
1962/12/30,0.00,-,19.00,18.50,-